Epoch 2005 Nov. 6.0 TT = JDT 2453680.5 T 2005 Oct. 25.99596 TT MPC q 1.8921927 (2000.0) P Q n 0.07524606 Peri. 118.19430 -0.48637168 -0.87373779 a 5.5566565 Node 0.95234 +0.65887145 -0.37050154 e 0.6594728 Incl. 17.45963 +0.57387369 -0.31513629 P 13.10
m1 = 15.0 + 5 log d + 10.0 log r